TimeEDT,TemperatureF,Dew PointF,Humidity,Sea Level PressureIn,VisibilityMPH,Wind Direction,Wind SpeedMPH,Gust SpeedMPH,PrecipitationIn,Events,Conditions,WindDirDegrees,DateUTC
12:15 AM,60.8,57.2,88,29.80,10.0,South,10.4,17.3,N/A,,Overcast,180,2013-09-22 04:15:00
12:35 AM,60.8,57.2,88,29.79,10.0,South,9.2,-,N/A,,Overcast,190,2013-09-22 04:35:00
12:55 AM,60.8,57.2,88,29.79,10.0,South,6.9,17.3,N/A,,Overcast,190,2013-09-22 04:55:00
1:15 AM,62.6,59.0,88,29.77,10.0,South,8.1,-,N/A,,Overcast,170,2013-09-22 05:15:00
1:35 AM,62.6,59.0,88,29.77,10.0,South,6.9,-,N/A,,Mostly Cloudy,180,2013-09-22 05:35:00
1:55 AM,62.6,59.0,88,29.76,10.0,South,9.2,-,N/A,,Overcast,170,2013-09-22 05:55:00
2:15 AM,60.8,59.0,94,29.75,10.0,South,10.4,-,N/A,,Overcast,170,2013-09-22 06:15:00
2:35 AM,62.6,60.8,94,29.74,10.0,South,12.7,19.6,N/A,,Overcast,170,2013-09-22 06:35:00
2:55 AM,62.6,60.8,94,29.73,10.0,South,8.1,18.4,N/A,,Overcast,180,2013-09-22 06:55:00
3:15 AM,62.6,60.8,94,29.72,10.0,SSE,10.4,21.9,N/A,,Overcast,160,2013-09-22 07:15:00
3:35 AM,62.6,60.8,94,29.71,10.0,South,10.4,16.1,N/A,,Overcast,170,2013-09-22 07:35:00
3:55 AM,62.6,60.8,94,29.70,10.0,South,12.7,20.7,N/A,,Overcast,170,2013-09-22 07:55:00
4:15 AM,62.6,60.8,94,29.70,10.0,SSE,11.5,18.4,N/A,,Overcast,160,2013-09-22 08:15:00
4:35 AM,62.6,60.8,94,29.69,10.0,SSE,12.7,19.6,N/A,,Overcast,160,2013-09-22 08:35:00
4:55 AM,62.6,60.8,94,29.69,10.0,South,12.7,20.7,N/A,,Overcast,170,2013-09-22 08:55:00
5:15 AM,62.6,60.8,94,29.68,10.0,South,13.8,20.7,N/A,,Overcast,170,2013-09-22 09:15:00
5:35 AM,62.6,62.6,100,29.67,10.0,SSE,16.1,24.2,N/A,,Overcast,160,2013-09-22 09:35:00
5:55 AM,62.6,60.8,94,29.67,10.0,South,15.0,23.0,N/A,,Overcast,170,2013-09-22 09:55:00
6:15 AM,62.6,60.8,94,29.67,10.0,SSE,15.0,24.2,N/A,,Mostly Cloudy,160,2013-09-22 10:15:00
6:35 AM,62.6,60.8,94,29.67,10.0,SSE,17.3,20.7,N/A,,Overcast,160,2013-09-22 10:35:00
6:55 AM,62.6,60.8,94,29.66,10.0,South,13.8,23.0,N/A,,Overcast,170,2013-09-22 10:55:00
7:15 AM,64.4,62.6,94,29.66,10.0,South,13.8,25.3,N/A,,Overcast,170,2013-09-22 11:15:00
7:35 AM,64.4,60.8,88,29.65,10.0,South,15.0,21.9,N/A,,Mostly Cloudy,170,2013-09-22 11:35:00
7:55 AM,64.4,60.8,88,29.64,10.0,South,17.3,25.3,N/A,,Overcast,170,2013-09-22 11:55:00
8:15 AM,64.4,60.8,88,29.64,10.0,SSE,17.3,25.3,N/A,,Mostly Cloudy,160,2013-09-22 12:15:00
8:35 AM,64.4,62.6,94,29.64,10.0,SSE,16.1,27.6,N/A,,Mostly Cloudy,160,2013-09-22 12:35:00
8:55 AM,64.4,62.6,94,29.64,10.0,South,13.8,29.9,N/A,,Mostly Cloudy,180,2013-09-22 12:55:00
9:15 AM,62.6,60.8,94,29.65,10.0,South,15.0,27.6,N/A,,Mostly Cloudy,190,2013-09-22 13:15:00
9:35 AM,62.6,62.6,100,29.65,4.0,SSW,15.0,23.0,0.18,,Overcast,200,2013-09-22 13:35:00
9:55 AM,62.6,62.6,100,29.64,5.0,SSW,10.4,21.9,0.19,,Overcast,200,2013-09-22 13:55:00
10:15 AM,62.6,60.8,94,29.64,5.0,SSW,10.4,18.4,0.02,,Overcast,200,2013-09-22 14:15:00
10:35 AM,62.6,60.8,94,29.65,5.0,SSW,12.7,19.6,0.02,,Overcast,200,2013-09-22 14:35:00
10:55 AM,62.6,60.8,94,29.65,5.0,SSW,9.2,-,0.03,,Overcast,200,2013-09-22 14:55:00
11:15 AM,60.8,60.8,100,29.65,5.0,South,8.1,-,0.02,,Overcast,180,2013-09-22 15:15:00
11:35 AM,60.8,60.8,100,29.65,2.0,South,8.1,17.3,0.02,,Overcast,190,2013-09-22 15:35:00
11:55 AM,60.8,59.0,94,29.65,6.0,South,10.4,-,0.02,,Overcast,180,2013-09-22 15:55:00
12:15 PM,60.8,60.8,100,29.65,1.5,SSW,10.4,18.4,N/A,,Overcast,200,2013-09-22 16:15:00
12:35 PM,60.8,60.8,100,29.64,5.0,SSW,9.2,-,N/A,,Overcast,200,2013-09-22 16:35:00
12:55 PM,60.8,60.8,100,29.64,8.0,South,8.1,-,N/A,,Overcast,190,2013-09-22 16:55:00
1:15 PM,60.8,60.8,100,29.64,8.0,SSW,6.9,-,N/A,,Overcast,200,2013-09-22 17:15:00
1:35 PM,62.6,60.8,94,29.63,10.0,SW,8.1,-,N/A,,Overcast,220,2013-09-22 17:35:00
1:55 PM,62.6,62.6,100,29.63,10.0,WSW,8.1,-,N/A,,Mostly Cloudy,240,2013-09-22 17:55:00
2:15 PM,62.6,60.8,94,29.62,10.0,WSW,10.4,-,N/A,,Overcast,240,2013-09-22 18:15:00
2:35 PM,62.6,60.8,94,29.61,10.0,SW,8.1,-,N/A,,Mostly Cloudy,230,2013-09-22 18:35:00
2:55 PM,64.4,60.8,88,29.61,10.0,SW,6.9,-,N/A,,Mostly Cloudy,230,2013-09-22 18:55:00
3:15 PM,64.4,59.0,83,29.62,10.0,SW,13.8,-,N/A,,Mostly Cloudy,230,2013-09-22 19:15:00
3:35 PM,64.4,60.8,88,29.62,10.0,South,9.2,-,N/A,,Mostly Cloudy,180,2013-09-22 19:35:00
3:55 PM,64.4,60.8,88,29.61,10.0,South,5.8,-,N/A,,Scattered Clouds,190,2013-09-22 19:55:00
4:15 PM,64.4,60.8,88,29.61,10.0,South,8.1,-,N/A,,Clear,190,2013-09-22 20:15:00
4:35 PM,64.4,60.8,88,29.62,10.0,South,8.1,-,N/A,,Clear,180,2013-09-22 20:35:00
4:55 PM,64.4,60.8,88,29.62,10.0,South,4.6,-,N/A,,Scattered Clouds,190,2013-09-22 20:55:00
5:15 PM,62.6,59.0,88,29.62,10.0,SSW,4.6,-,N/A,,Partly Cloudy,200,2013-09-22 21:15:00
5:35 PM,62.6,59.0,88,29.62,10.0,SW,8.1,-,N/A,,Partly Cloudy,220,2013-09-22 21:35:00
5:55 PM,62.6,57.2,82,29.62,10.0,SW,9.2,-,N/A,,Partly Cloudy,220,2013-09-22 21:55:00
6:15 PM,62.6,57.2,82,29.63,10.0,SW,6.9,-,N/A,,Scattered Clouds,230,2013-09-22 22:15:00
6:35 PM,60.8,57.2,88,29.63,10.0,SW,3.5,-,N/A,,Scattered Clouds,230,2013-09-22 22:35:00
6:55 PM,59.0,57.2,94,29.63,10.0,Calm,Calm,-,N/A,,Partly Cloudy,0,2013-09-22 22:55:00
7:15 PM,57.2,55.4,94,29.64,10.0,SW,4.6,-,N/A,,Scattered Clouds,230,2013-09-22 23:15:00
7:35 PM,57.2,55.4,94,29.65,10.0,WNW,4.6,-,N/A,,Partly Cloudy,290,2013-09-22 23:35:00
7:55 PM,57.2,55.4,94,29.66,10.0,NW,4.6,-,N/A,,Partly Cloudy,310,2013-09-22 23:55:00
8:15 PM,59.0,53.6,82,29.67,10.0,WNW,6.9,-,N/A,,Clear,290,2013-09-23 00:15:00
8:35 PM,59.0,51.8,77,29.68,10.0,WNW,6.9,-,N/A,,Partly Cloudy,300,2013-09-23 00:35:00
8:55 PM,59.0,51.8,77,29.69,10.0,WNW,5.8,-,N/A,,Mostly Cloudy,290,2013-09-23 00:55:00
9:15 PM,59.0,50.0,72,29.70,10.0,NW,5.8,-,N/A,,Overcast,310,2013-09-23 01:15:00
9:35 PM,57.2,48.2,72,29.70,10.0,WNW,8.1,-,N/A,,Overcast,290,2013-09-23 01:35:00
9:55 PM,57.2,48.2,72,29.71,10.0,WNW,6.9,-,N/A,,Overcast,300,2013-09-23 01:55:00
10:15 PM,57.2,48.2,72,29.72,10.0,WNW,3.5,-,N/A,,Overcast,300,2013-09-23 02:15:00
10:35 PM,55.4,48.2,77,29.72,10.0,NW,4.6,-,N/A,,Overcast,320,2013-09-23 02:35:00
10:55 PM,55.4,48.2,77,29.73,10.0,West,6.9,-,N/A,,Overcast,280,2013-09-23 02:55:00
11:15 PM,55.4,46.4,72,29.73,10.0,WNW,4.6,-,N/A,,Mostly Cloudy,290,2013-09-23 03:15:00
11:35 PM,53.6,46.4,77,29.73,10.0,WNW,5.8,-,N/A,,Partly Cloudy,290,2013-09-23 03:35:00
11:55 PM,53.6,46.4,77,29.73,10.0,WNW,4.6,-,N/A,,Clear,290,2013-09-23 03:55:00